Time,TemperatureF,DewpointF,PressureIn,WindDirection,WindDirectionDegrees,WindSpeedMPH,WindSpeedGustMPH,Humidity,HourlyPrecipIn,Conditions,Clouds,dailyrainin,SoftwareType,DateUTC
2013-07-01 00:05:00,58.1,50.9,29.95,North,5,0.0,0.0,77,0.00,,,0.00,Wunderground v.1.13,2013-07-01 05:05:00,
2013-07-01 00:15:00,57.8,51.0,29.96,North,5,0.0,0.0,78,0.00,,,0.00,Wunderground v.1.13,2013-07-01 05:15:00,
2013-07-01 00:25:00,57.8,51.3,29.96,North,5,0.0,0.0,79,0.00,,,0.00,Wunderground v.1.13,2013-07-01 05:25:00,
2013-07-01 00:35:00,57.8,51.3,29.95,North,5,0.0,0.0,79,0.00,,,0.00,Wunderground v.1.13,2013-07-01 05:35:00,
2013-07-01 00:40:00,57.8,51.3,29.95,North,5,0.0,0.0,79,0.00,,,0.00,Wunderground v.1.13,2013-07-01 05:40:00,
2013-07-01 00:45:00,57.6,51.1,29.95,North,5,0.0,0.0,79,0.00,,,0.00,Wunderground v.1.13,2013-07-01 05:45:00,
2013-07-01 00:50:00,57.6,51.1,29.95,North,5,0.0,0.0,79,0.00,,,0.00,Wunderground v.1.13,2013-07-01 05:50:00,
2013-07-01 00:55:00,57.5,51.0,29.95,North,5,0.0,0.0,79,0.00,,,0.00,Wunderground v.1.13,2013-07-01 05:55:00,
2013-07-01 01:05:00,57.3,51.2,29.95,North,5,0.0,0.0,80,0.00,,,0.00,Wunderground v.1.13,2013-07-01 06:05:00,
2013-07-01 01:15:00,57.2,51.1,29.95,North,5,0.0,0.0,80,0.00,,,0.00,Wunderground v.1.13,2013-07-01 06:15:00,
2013-07-01 01:25:00,57.3,51.2,29.95,North,5,0.0,0.0,80,0.00,,,0.00,Wunderground v.1.13,2013-07-01 06:25:00,
2013-07-01 01:35:00,57.3,51.2,29.95,North,5,0.0,0.0,80,0.00,,,0.00,Wunderground v.1.13,2013-07-01 06:35:00,
2013-07-01 01:45:00,57.3,51.2,29.95,North,5,0.0,0.0,80,0.00,,,0.00,Wunderground v.1.13,2013-07-01 06:45:00,
2013-07-01 01:50:00,57.3,51.2,29.95,North,5,0.0,0.0,80,0.00,,,0.00,Wunderground v.1.13,2013-07-01 06:50:00,
2013-07-01 01:55:00,57.3,50.8,29.95,North,5,0.0,0.0,79,0.00,,,0.00,Wunderground v.1.13,2013-07-01 06:55:00,
2013-07-01 02:00:00,57.3,50.8,29.95,North,5,0.0,0.0,79,0.00,,,0.00,Wunderground v.1.13,2013-07-01 07:00:00,
2013-07-01 02:05:00,57.3,50.5,29.95,North,5,0.0,0.0,78,0.00,,,0.00,Wunderground v.1.13,2013-07-01 07:05:00,
2013-07-01 02:15:00,57.3,50.1,29.95,North,5,0.0,0.0,77,0.00,,,0.00,Wunderground v.1.13,2013-07-01 07:15:00,
2013-07-01 02:20:00,57.3,50.1,29.95,North,5,0.0,0.0,77,0.00,,,0.00,Wunderground v.1.13,2013-07-01 07:20:00,
2013-07-01 02:30:00,57.2,50.1,29.95,North,5,0.0,0.0,77,0.00,,,0.00,Wunderground v.1.13,2013-07-01 07:30:00,
2013-07-01 02:40:00,57.0,49.9,29.95,North,5,0.0,1.0,77,0.00,,,0.00,Wunderground v.1.13,2013-07-01 07:40:00,
2013-07-01 02:50:00,57.0,49.5,29.95,North,5,0.0,1.0,76,0.00,,,0.00,Wunderground v.1.13,2013-07-01 07:50:00,
2013-07-01 03:00:00,57.0,49.2,29.95,North,5,0.0,1.0,75,0.00,,,0.00,Wunderground v.1.13,2013-07-01 08:00:00,
2013-07-01 03:05:00,57.0,49.2,29.95,North,5,0.0,1.0,75,0.00,,,0.00,Wunderground v.1.13,2013-07-01 08:05:00,
2013-07-01 03:15:00,56.9,49.1,29.95,North,5,0.0,1.0,75,0.00,,,0.00,Wunderground v.1.13,2013-07-01 08:15:00,
2013-07-01 03:25:00,56.7,48.9,29.95,North,5,0.0,1.0,75,0.00,,,0.00,Wunderground v.1.13,2013-07-01 08:25:00,
2013-07-01 03:35:00,56.6,48.8,29.96,North,5,0.0,1.0,75,0.00,,,0.00,Wunderground v.1.13,2013-07-01 08:35:00,
2013-07-01 03:45:00,56.5,48.7,29.96,North,5,0.0,1.0,75,0.00,,,0.00,Wunderground v.1.13,2013-07-01 08:45:00,
2013-07-01 03:55:00,56.3,48.5,29.96,North,5,0.0,1.0,75,0.00,,,0.00,Wunderground v.1.13,2013-07-01 08:55:00,
2013-07-01 04:00:00,56.3,48.8,29.97,North,5,0.0,1.0,76,0.00,,,0.00,Wunderground v.1.13,2013-07-01 09:00:00,
2013-07-01 04:05:00,56.3,48.8,29.97,North,5,0.0,2.0,76,0.00,,,0.00,Wunderground v.1.13,2013-07-01 09:05:00,
2013-07-01 04:15:00,56.3,48.5,29.97,North,5,0.0,2.0,75,0.00,,,0.00,Wunderground v.1.13,2013-07-01 09:15:00,
2013-07-01 04:25:00,56.3,48.8,29.97,North,5,0.0,2.0,76,0.00,,,0.00,Wunderground v.1.13,2013-07-01 09:25:00,
2013-07-01 04:35:00,56.3,48.5,29.97,North,5,0.0,1.0,75,0.00,,,0.00,Wunderground v.1.13,2013-07-01 09:35:00,
2013-07-01 04:45:00,56.2,48.7,29.97,North,5,0.0,1.0,76,0.00,,,0.00,Wunderground v.1.13,2013-07-01 09:45:00,
2013-07-01 04:55:00,56.2,48.4,29.97,North,5,0.0,5.0,75,0.00,,,0.00,Wunderground v.1.13,2013-07-01 09:55:00,
2013-07-01 05:05:00,56.5,47.9,29.98,North,5,0.0,5.0,73,0.00,,,0.00,Wunderground v.1.13,2013-07-01 10:05:00,
2013-07-01 05:15:00,56.6,47.7,29.98,North,5,0.0,5.0,72,0.00,,,0.00,Wunderground v.1.13,2013-07-01 10:15:00,
2013-07-01 05:25:00,57.0,46.9,29.98,North,5,0.0,5.0,69,0.00,,,0.00,Wunderground v.1.13,2013-07-01 10:25:00,
2013-07-01 05:35:00,57.3,46.8,29.98,North,5,0.0,6.0,68,0.00,,,0.00,Wunderground v.1.13,2013-07-01 10:35:00,
2013-07-01 05:45:00,57.5,46.6,29.98,North,5,0.0,6.0,67,0.00,,,0.00,Wunderground v.1.13,2013-07-01 10:45:00,
2013-07-01 05:55:00,57.6,46.7,29.98,North,5,0.0,6.0,67,0.00,,,0.00,Wunderground v.1.13,2013-07-01 10:55:00,
2013-07-01 06:00:00,57.6,47.1,29.99,North,5,0.0,6.0,68,0.00,,,0.00,Wunderground v.1.13,2013-07-01 11:00:00,
2013-07-01 06:05:00,57.8,46.9,29.99,North,5,0.0,6.0,67,0.00,,,0.00,Wunderground v.1.13,2013-07-01 11:05:00,
2013-07-01 06:15:00,58.1,47.2,29.99,North,5,0.0,6.0,67,0.00,,,0.00,Wunderground v.1.13,2013-07-01 11:15:00,
2013-07-01 06:25:00,58.6,47.7,29.99,North,5,0.0,6.0,67,0.00,,,0.00,Wunderground v.1.13,2013-07-01 11:25:00,
2013-07-01 06:35:00,58.7,48.2,30.00,North,5,0.0,4.0,68,0.00,,,0.00,Wunderground v.1.13,2013-07-01 11:35:00,
2013-07-01 06:40:00,58.9,48.0,30.00,North,5,0.0,4.0,67,0.00,,,0.00,Wunderground v.1.13,2013-07-01 11:40:00,
2013-07-01 06:50:00,59.2,48.2,30.00,North,10,0.0,5.0,67,0.00,,,0.00,Wunderground v.1.13,2013-07-01 11:50:00,
2013-07-01 06:55:00,59.5,48.5,30.00,NNW,348,0.0,4.0,67,0.00,,,0.00,Wunderground v.1.13,2013-07-01 11:55:00,
2013-07-01 07:05:00,59.8,48.8,30.00,NNW,348,0.0,5.0,67,0.00,,,0.00,Wunderground v.1.13,2013-07-01 12:05:00,
2013-07-01 07:15:00,60.4,49.4,30.00,North,355,0.0,5.0,67,0.00,,,0.00,Wunderground v.1.13,2013-07-01 12:15:00,
2013-07-01 07:25:00,60.9,49.9,30.00,NNE,17,0.0,5.0,67,0.00,,,0.00,Wunderground v.1.13,2013-07-01 12:25:00,
2013-07-01 07:35:00,61.3,50.6,30.01,North,5,1.0,1.0,68,0.00,,,0.00,Wunderground v.1.13,2013-07-01 12:35:00,
2013-07-01 07:45:00,62.0,51.3,30.01,North,5,0.0,6.0,68,0.00,,,0.00,Wunderground v.1.13,2013-07-01 12:45:00,
2013-07-01 07:50:00,62.3,51.6,30.01,North,350,0.0,6.0,68,0.00,,,0.00,Wunderground v.1.13,2013-07-01 12:50:00,
2013-07-01 07:55:00,62.7,52.0,30.01,North,355,0.0,6.0,68,0.00,,,0.00,Wunderground v.1.13,2013-07-01 12:55:00,
2013-07-01 08:05:00,63.7,51.7,30.01,North,355,1.0,1.0,65,0.00,,,0.00,Wunderground v.1.13,2013-07-01 13:05:00,
2013-07-01 08:15:00,63.9,52.3,30.02,North,5,1.0,1.0,66,0.00,,,0.00,Wunderground v.1.13,2013-07-01 13:15:00,
2013-07-01 08:20:00,64.0,51.6,30.02,ENE,57,1.0,9.0,64,0.00,,,0.00,Wunderground v.1.13,2013-07-01 13:20:00,
2013-07-01 08:25:00,64.3,52.3,30.02,NNE,16,1.0,1.0,65,0.00,,,0.00,Wunderground v.1.13,2013-07-01 13:25:00,
2013-07-01 08:30:00,64.7,51.8,30.02,North,5,1.0,1.0,63,0.00,,,0.00,Wunderground v.1.13,2013-07-01 13:30:00,
2013-07-01 08:40:00,65.6,52.2,30.02,NNE,22,1.0,1.0,62,0.00,,,0.00,Wunderground v.1.13,2013-07-01 13:40:00,
2013-07-01 08:45:00,66.1,52.7,30.02,NNE,22,1.0,1.0,62,0.00,,,0.00,Wunderground v.1.13,2013-07-01 13:45:00,
2013-07-01 08:50:00,66.4,52.5,30.02,NNE,20,0.0,8.0,61,0.00,,,0.00,Wunderground v.1.13,2013-07-01 13:50:00,
2013-07-01 09:00:00,67.4,52.6,30.02,NNW,338,0.0,8.0,59,0.00,,,0.00,Wunderground v.1.13,2013-07-01 14:00:00,
2013-07-01 09:05:00,67.8,52.5,30.02,NE,48,1.0,1.0,58,0.00,,,0.00,Wunderground v.1.13,2013-07-01 14:05:00,
2013-07-01 09:15:00,68.6,52.3,30.02,North,5,1.0,1.0,56,0.00,,,0.00,Wunderground v.1.13,2013-07-01 14:15:00,
2013-07-01 09:20:00,68.9,53.0,30.02,NNW,344,1.0,1.0,57,0.00,,,0.00,Wunderground v.1.13,2013-07-01 14:20:00,
2013-07-01 09:30:00,69.4,51.0,30.03,NNW,340,2.0,9.0,52,0.00,,,0.00,Wunderground v.1.13,2013-07-01 14:30:00,
2013-07-01 09:35:00,69.8,50.9,30.03,NNE,19,2.0,2.0,51,0.00,,,0.00,Wunderground v.1.13,2013-07-01 14:35:00,
2013-07-01 09:40:00,69.8,51.9,30.03,North,355,2.0,2.0,53,0.00,,,0.00,Wunderground v.1.13,2013-07-01 14:40:00,
2013-07-01 09:50:00,70.1,51.7,30.03,NW,323,2.0,8.0,52,0.00,,,0.00,Wunderground v.1.13,2013-07-01 14:50:00,
2013-07-01 10:00:00,70.4,51.4,30.03,North,5,4.0,8.0,51,0.00,,,0.00,Wunderground v.1.13,2013-07-01 15:00:00,
2013-07-01 10:05:00,70.8,52.8,30.03,NNW,333,4.0,11.0,53,0.00,,,0.00,Wunderground v.1.13,2013-07-01 15:05:00,
2013-07-01 10:15:00,71.1,52.0,30.02,NNW,329,4.0,11.0,51,0.00,,,0.00,Wunderground v.1.13,2013-07-01 15:15:00,
2013-07-01 10:25:00,71.6,52.0,30.02,NNE,26,5.0,5.0,50,0.00,,,0.00,Wunderground v.1.13,2013-07-01 15:25:00,
2013-07-01 10:30:00,71.6,52.0,30.03,North,5,5.0,11.0,50,0.00,,,0.00,Wunderground v.1.13,2013-07-01 15:30:00,
2013-07-01 10:35:00,71.5,51.9,30.03,NNW,329,5.0,11.0,50,0.00,,,0.00,Wunderground v.1.13,2013-07-01 15:35:00,
2013-07-01 10:45:00,71.6,51.4,30.03,North,5,6.0,11.0,49,0.00,,,0.00,Wunderground v.1.13,2013-07-01 15:45:00,
2013-07-01 10:55:00,72.3,51.5,30.03,NNE,22,4.0,4.0,48,0.00,,,0.00,Wunderground v.1.13,2013-07-01 15:55:00,
2013-07-01 11:00:00,72.7,51.9,30.03,NNE,26,3.0,11.0,48,0.00,,,0.00,Wunderground v.1.13,2013-07-01 16:00:00,
2013-07-01 11:05:00,73.0,52.1,30.03,NNE,15,3.0,3.0,48,0.00,,,0.00,Wunderground v.1.13,2013-07-01 16:05:00,
2013-07-01 11:15:00,73.5,53.2,30.02,NE,38,5.0,13.0,49,0.00,,,0.00,Wunderground v.1.13,2013-07-01 16:15:00,
2013-07-01 11:20:00,73.5,53.7,30.02,NNE,32,4.0,13.0,50,0.00,,,0.00,Wunderground v.1.13,2013-07-01 16:20:00,
2013-07-01 11:25:00,73.7,53.3,30.02,NNE,29,5.0,5.0,49,0.00,,,0.00,Wunderground v.1.13,2013-07-01 16:25:00,
2013-07-01 11:30:00,73.5,52.0,30.02,NE,44,5.0,5.0,47,0.00,,,0.00,Wunderground v.1.13,2013-07-01 16:30:00,
2013-07-01 11:40:00,74.2,53.2,30.02,North,355,4.0,4.0,48,0.00,,,0.00,Wunderground v.1.13,2013-07-01 16:40:00,
2013-07-01 11:45:00,74.4,53.4,30.02,NNE,17,3.0,12.0,48,0.00,,,0.00,Wunderground v.1.13,2013-07-01 16:45:00,
2013-07-01 11:55:00,74.4,53.4,30.02,NNE,25,4.0,12.0,48,0.00,,,0.00,Wunderground v.1.13,2013-07-01 16:55:00,
2013-07-01 12:05:00,74.7,53.1,30.02,North,355,4.0,13.0,47,0.00,,,0.00,Wunderground v.1.13,2013-07-01 17:05:00,
2013-07-01 12:15:00,75.1,54.1,30.02,NNE,26,5.0,13.0,48,0.00,,,0.00,Wunderground v.1.13,2013-07-01 17:15:00,
2013-07-01 12:20:00,75.4,52.6,30.02,NNE,26,4.0,4.0,45,0.00,,,0.00,Wunderground v.1.13,2013-07-01 17:20:00,
2013-07-01 12:30:00,75.8,52.9,30.02,North,5,2.0,13.0,45,0.00,,,0.00,Wunderground v.1.13,2013-07-01 17:30:00,
2013-07-01 12:35:00,75.8,53.5,30.02,NE,39,4.0,12.0,46,0.00,,,0.00,Wunderground v.1.13,2013-07-01 17:35:00,
2013-07-01 12:40:00,75.8,54.7,30.02,NNE,22,4.0,4.0,48,0.00,,,0.00,Wunderground v.1.13,2013-07-01 17:40:00,
2013-07-01 12:45:00,76.0,54.9,30.02,ENE,67,2.0,12.0,48,0.00,,,0.00,Wunderground v.1.13,2013-07-01 17:45:00,
2013-07-01 12:55:00,76.3,52.8,30.02,NE,39,3.0,12.0,44,0.00,,,0.00,Wunderground v.1.13,2013-07-01 17:55:00,
2013-07-01 13:00:00,76.3,51.5,30.02,NNE,16,4.0,4.0,42,0.00,,,0.00,Wunderground v.1.13,2013-07-01 18:00:00,
2013-07-01 13:05:00,76.5,52.3,30.02,NE,41,3.0,3.0,43,0.00,,,0.00,Wunderground v.1.13,2013-07-01 18:05:00,
2013-07-01 13:15:00,77.2,51.7,30.01,NNE,18,3.0,14.0,41,0.00,,,0.00,Wunderground v.1.13,2013-07-01 18:15:00,
2013-07-01 13:20:00,77.0,50.8,30.01,North,11,5.0,5.0,40,0.00,,,0.00,Wunderground v.1.13,2013-07-01 18:20:00,
2013-07-01 13:25:00,76.8,52.0,30.01,North,5,5.0,5.0,42,0.00,,,0.00,Wunderground v.1.13,2013-07-01 18:25:00,
2013-07-01 13:35:00,77.0,50.1,30.01,North,5,3.0,14.0,39,0.00,,,0.00,Wunderground v.1.13,2013-07-01 18:35:00,
2013-07-01 13:40:00,77.0,49.4,30.01,ENE,71,5.0,5.0,38,0.00,,,0.00,Wunderground v.1.13,2013-07-01 18:40:00,
2013-07-01 13:45:00,77.2,50.3,30.01,NNE,26,4.0,14.0,39,0.00,,,0.00,Wunderground v.1.13,2013-07-01 18:45:00,
2013-07-01 13:55:00,77.0,51.5,30.01,East,79,3.0,14.0,41,0.00,,,0.00,Wunderground v.1.13,2013-07-01 18:55:00,
2013-07-01 14:00:00,77.2,54.2,30.01,SE,136,3.0,3.0,45,0.00,,,0.00,Wunderground v.1.13,2013-07-01 19:00:00,
2013-07-01 14:05:00,77.7,50.1,30.01,NE,44,3.0,20.0,38,0.00,,,0.00,Wunderground v.1.13,2013-07-01 19:05:00,
2013-07-01 14:15:00,77.6,48.5,30.01,NNE,28,4.0,20.0,36,0.00,,,0.00,Wunderground v.1.13,2013-07-01 19:15:00,
2013-07-01 14:20:00,77.4,49.8,30.01,North,350,4.0,4.0,38,0.00,,,0.00,Wunderground v.1.13,2013-07-01 19:20:00,
2013-07-01 14:30:00,77.2,49.6,30.01,ENE,58,3.0,20.0,38,0.00,,,0.00,Wunderground v.1.13,2013-07-01 19:30:00,
2013-07-01 14:40:00,77.6,50.0,30.01,ENE,70,4.0,13.0,38,0.00,,,0.00,Wunderground v.1.13,2013-07-01 19:40:00,
2013-07-01 14:45:00,77.7,46.3,30.01,North,360,5.0,13.0,33,0.00,,,0.00,Wunderground v.1.13,2013-07-01 19:45:00,
2013-07-01 14:55:00,77.7,47.9,30.01,NE,34,3.0,13.0,35,0.00,,,0.00,Wunderground v.1.13,2013-07-01 19:55:00,
2013-07-01 15:00:00,77.7,47.9,30.01,ENE,75,3.0,13.0,35,0.00,,,0.00,Wunderground v.1.13,2013-07-01 20:00:00,
2013-07-01 15:05:00,77.9,48.8,30.01,NNE,28,4.0,10.0,36,0.00,,,0.00,Wunderground v.1.13,2013-07-01 20:05:00,
2013-07-01 15:15:00,78.5,48.6,30.01,ENE,57,5.0,5.0,35,0.00,,,0.00,Wunderground v.1.13,2013-07-01 20:15:00,
2013-07-01 15:20:00,78.1,45.8,30.01,ENE,57,4.0,4.0,32,0.00,,,0.00,Wunderground v.1.13,2013-07-01 20:20:00,
2013-07-01 15:30:00,78.8,46.4,30.01,ENE,59,4.0,4.0,32,0.00,,,0.00,Wunderground v.1.13,2013-07-01 20:30:00,
2013-07-01 15:35:00,78.6,47.1,30.01,East,94,4.0,4.0,33,0.00,,,0.00,Wunderground v.1.13,2013-07-01 20:35:00,
2013-07-01 15:40:00,78.5,46.2,30.01,NW,315,4.0,18.0,32,0.00,,,0.00,Wunderground v.1.13,2013-07-01 20:40:00,
2013-07-01 15:45:00,78.8,51.0,30.01,North,5,4.0,4.0,38,0.00,,,0.00,Wunderground v.1.13,2013-07-01 20:45:00,
2013-07-01 15:50:00,79.2,46.8,30.01,NE,34,3.0,3.0,32,0.00,,,0.00,Wunderground v.1.13,2013-07-01 20:50:00,
2013-07-01 15:55:00,79.2,45.9,30.01,NNE,15,3.0,18.0,31,0.00,,,0.00,Wunderground v.1.13,2013-07-01 20:55:00,
2013-07-01 16:05:00,79.0,49.0,30.01,NE,36,4.0,4.0,35,0.00,,,0.00,Wunderground v.1.13,2013-07-01 21:05:00,
2013-07-01 16:15:00,78.8,45.6,30.00,NE,54,5.0,18.0,31,0.00,,,0.00,Wunderground v.1.13,2013-07-01 21:15:00,
2013-07-01 16:25:00,78.5,46.2,30.00,NNE,28,3.0,18.0,32,0.00,,,0.00,Wunderground v.1.13,2013-07-01 21:25:00,
2013-07-01 16:30:00,78.5,47.8,30.01,SE,134,4.0,18.0,34,0.00,,,0.00,Wunderground v.1.13,2013-07-01 21:30:00,
2013-07-01 16:40:00,78.3,45.2,30.01,NE,56,6.0,6.0,31,0.00,,,0.00,Wunderground v.1.13,2013-07-01 21:40:00,
2013-07-01 16:45:00,78.3,46.0,30.01,ENE,57,6.0,6.0,32,0.00,,,0.00,Wunderground v.1.13,2013-07-01 21:45:00,
2013-07-01 16:50:00,78.3,47.6,30.01,NE,48,5.0,5.0,34,0.00,,,0.00,Wunderground v.1.13,2013-07-01 21:50:00,
2013-07-01 16:55:00,78.3,47.6,30.01,NE,51,4.0,4.0,34,0.00,,,0.00,Wunderground v.1.13,2013-07-01 21:55:00,
2013-07-01 17:00:00,78.5,46.2,30.01,NE,36,3.0,14.0,32,0.00,,,0.00,Wunderground v.1.13,2013-07-01 22:00:00,
2013-07-01 17:05:00,78.3,45.2,30.01,NE,53,3.0,3.0,31,0.00,,,0.00,Wunderground v.1.13,2013-07-01 22:05:00,
2013-07-01 17:15:00,77.9,48.0,30.01,NE,42,4.0,16.0,35,0.00,,,0.00,Wunderground v.1.13,2013-07-01 22:15:00,
2013-07-01 17:25:00,77.7,47.1,30.01,North,5,4.0,16.0,34,0.00,,,0.00,Wunderground v.1.13,2013-07-01 22:25:00,
2013-07-01 17:30:00,77.9,44.8,30.01,NE,37,3.0,16.0,31,0.00,,,0.00,Wunderground v.1.13,2013-07-01 22:30:00,
2013-07-01 17:40:00,77.9,50.2,30.01,NNE,18,3.0,3.0,38,0.00,,,0.00,Wunderground v.1.13,2013-07-01 22:40:00,
2013-07-01 17:45:00,77.7,47.1,30.01,ENE,61,3.0,3.0,34,0.00,,,0.00,Wunderground v.1.13,2013-07-01 22:45:00,
2013-07-01 17:50:00,77.7,47.1,30.01,NE,45,3.0,11.0,34,0.00,,,0.00,Wunderground v.1.13,2013-07-01 22:50:00,
2013-07-01 17:55:00,77.7,47.1,30.01,NNE,28,3.0,11.0,34,0.00,,,0.00,Wunderground v.1.13,2013-07-01 22:55:00,
2013-07-01 18:05:00,77.4,45.2,30.00,NNE,28,4.0,11.0,32,0.00,,,0.00,Wunderground v.1.13,2013-07-01 23:05:00,
2013-07-01 18:15:00,77.2,46.7,30.00,NE,41,4.0,4.0,34,0.00,,,0.00,Wunderground v.1.13,2013-07-01 23:15:00,
2013-07-01 18:25:00,77.0,45.7,30.00,ENE,67,2.0,2.0,33,0.00,,,0.00,Wunderground v.1.13,2013-07-01 23:25:00,
2013-07-01 18:30:00,76.8,47.1,30.00,NE,47,3.0,3.0,35,0.00,,,0.00,Wunderground v.1.13,2013-07-01 23:30:00,
2013-07-01 18:35:00,76.8,47.1,30.00,NE,47,2.0,13.0,35,0.00,,,0.00,Wunderground v.1.13,2013-07-01 23:35:00,
2013-07-01 18:45:00,76.5,46.0,30.00,NE,38,3.0,13.0,34,0.00,,,0.00,Wunderground v.1.13,2013-07-01 23:45:00,
2013-07-01 18:55:00,76.3,46.6,30.00,NE,36,2.0,2.0,35,0.00,,,0.00,Wunderground v.1.13,2013-07-01 23:55:00,
2013-07-01 19:05:00,76.1,47.9,30.00,NNE,28,1.0,1.0,37,0.00,,,0.00,Wunderground v.1.13,2013-07-02 00:05:00,
2013-07-01 19:15:00,75.8,49.8,30.00,NE,38,2.0,2.0,40,0.00,,,0.00,Wunderground v.1.13,2013-07-02 00:15:00,
2013-07-01 19:20:00,75.6,48.9,30.00,NE,38,1.0,1.0,39,0.00,,,0.00,Wunderground v.1.13,2013-07-02 00:20:00,
2013-07-01 19:30:00,75.3,49.3,30.00,NNE,21,1.0,1.0,40,0.00,,,0.00,Wunderground v.1.13,2013-07-02 00:30:00,
2013-07-01 19:35:00,75.1,49.1,30.00,NNE,22,1.0,1.0,40,0.00,,,0.00,Wunderground v.1.13,2013-07-02 00:35:00,
2013-07-01 19:45:00,74.6,49.3,30.00,NNE,22,0.0,10.0,41,0.00,,,0.00,Wunderground v.1.13,2013-07-02 00:45:00,
2013-07-01 19:50:00,74.4,49.8,30.00,NNE,22,0.0,10.0,42,0.00,,,0.00,Wunderground v.1.13,2013-07-02 00:50:00,
2013-07-01 20:00:00,73.7,49.8,30.00,NNE,23,0.0,10.0,43,0.00,,,0.00,Wunderground v.1.13,2013-07-02 01:00:00,
2013-07-01 20:05:00,73.3,50.1,30.00,NNE,28,0.0,6.0,44,0.00,,,0.00,Wunderground v.1.13,2013-07-02 01:05:00,
2013-07-01 20:15:00,72.7,49.5,30.00,NNE,28,0.0,6.0,44,0.00,,,0.00,Wunderground v.1.13,2013-07-02 01:15:00,
2013-07-01 20:20:00,72.3,49.8,30.00,NNE,28,0.0,6.0,45,0.00,,,0.00,Wunderground v.1.13,2013-07-02 01:20:00,
2013-07-01 20:25:00,72.0,49.5,30.00,NNE,28,0.0,6.0,45,0.00,,,0.00,Wunderground v.1.13,2013-07-02 01:25:00,
2013-07-01 20:35:00,71.3,50.0,30.00,NNE,28,0.0,5.0,47,0.00,,,0.00,Wunderground v.1.13,2013-07-02 01:35:00,
2013-07-01 20:45:00,70.3,49.7,30.00,NNE,28,0.0,5.0,48,0.00,,,0.00,Wunderground v.1.13,2013-07-02 01:45:00,
2013-07-01 20:50:00,70.1,49.5,30.00,NNE,28,0.0,5.0,48,0.00,,,0.00,Wunderground v.1.13,2013-07-02 01:50:00,
2013-07-01 21:00:00,69.4,49.9,30.00,NNE,28,0.0,5.0,50,0.00,,,0.00,Wunderground v.1.13,2013-07-02 02:00:00,
2013-07-01 21:05:00,69.1,50.2,30.00,NNE,28,0.0,1.0,51,0.00,,,0.00,Wunderground v.1.13,2013-07-02 02:05:00,
2013-07-01 21:15:00,68.6,49.7,30.00,NNE,28,0.0,1.0,51,0.00,,,0.00,Wunderground v.1.13,2013-07-02 02:15:00,
2013-07-01 21:25:00,68.4,49.6,30.00,NNE,28,0.0,1.0,51,0.00,,,0.00,Wunderground v.1.13,2013-07-02 02:25:00,
2013-07-01 21:35:00,68.1,49.8,30.00,NNE,28,0.0,0.0,52,0.00,,,0.00,Wunderground v.1.13,2013-07-02 02:35:00,
2013-07-01 21:45:00,67.3,50.6,30.00,NNE,28,0.0,0.0,55,0.00,,,0.00,Wunderground v.1.13,2013-07-02 02:45:00,
2013-07-01 21:50:00,66.9,50.2,30.00,NNE,28,0.0,0.0,55,0.00,,,0.00,Wunderground v.1.13,2013-07-02 02:50:00,
2013-07-01 21:55:00,66.9,50.2,30.00,NNE,28,0.0,0.0,55,0.00,,,0.00,Wunderground v.1.13,2013-07-02 02:55:00,
2013-07-01 22:05:00,66.8,50.6,30.01,NNE,28,0.0,0.0,56,0.00,,,0.00,Wunderground v.1.13,2013-07-02 03:05:00,
2013-07-01 22:15:00,66.4,50.7,30.01,NNE,26,0.0,0.0,57,0.00,,,0.00,Wunderground v.1.13,2013-07-02 03:15:00,
2013-07-01 22:20:00,66.3,51.1,30.01,NNE,26,0.0,0.0,58,0.00,,,0.00,Wunderground v.1.13,2013-07-02 03:20:00,
2013-07-01 22:30:00,65.6,50.9,30.01,NNE,26,0.0,0.0,59,0.00,,,0.00,Wunderground v.1.13,2013-07-02 03:30:00,
2013-07-01 22:35:00,65.2,51.0,30.01,NNE,26,0.0,2.0,60,0.00,,,0.00,Wunderground v.1.13,2013-07-02 03:35:00,
2013-07-01 22:45:00,64.5,50.7,30.01,NNE,26,0.0,2.0,61,0.00,,,0.00,Wunderground v.1.13,2013-07-02 03:45:00,
2013-07-01 22:55:00,63.9,51.1,30.01,NNE,26,0.0,2.0,63,0.00,,,0.00,Wunderground v.1.13,2013-07-02 03:55:00,
2013-07-01 23:00:00,63.7,51.3,30.01,NNE,26,0.0,2.0,64,0.00,,,0.00,Wunderground v.1.13,2013-07-02 04:00:00,
2013-07-01 23:05:00,63.5,51.5,30.01,NNE,26,0.0,0.0,65,0.00,,,0.00,Wunderground v.1.13,2013-07-02 04:05:00,
2013-07-01 23:10:00,63.4,51.8,30.01,NNE,26,0.0,0.0,66,0.00,,,0.00,Wunderground v.1.13,2013-07-02 04:10:00,
2013-07-01 23:15:00,63.2,52.1,30.01,NNE,26,0.0,0.0,67,0.00,,,0.00,Wunderground v.1.13,2013-07-02 04:15:00,
2013-07-01 23:20:00,63.1,52.4,30.01,NNE,26,0.0,0.0,68,0.00,,,0.00,Wunderground v.1.13,2013-07-02 04:20:00,
2013-07-01 23:25:00,62.7,52.4,30.01,NNE,26,0.0,0.0,69,0.00,,,0.00,Wunderground v.1.13,2013-07-02 04:25:00,
2013-07-01 23:30:00,62.6,52.7,30.01,NNE,26,0.0,0.0,70,0.00,,,0.00,Wunderground v.1.13,2013-07-02 04:30:00,
2013-07-01 23:35:00,62.3,52.8,30.01,NNE,26,0.0,0.0,71,0.00,,,0.00,Wunderground v.1.13,2013-07-02 04:35:00,
2013-07-01 23:45:00,61.8,51.9,30.01,NNE,26,0.0,0.0,70,0.00,,,0.00,Wunderground v.1.13,2013-07-02 04:45:00,
2013-07-01 23:50:00,62.0,51.7,30.01,NNE,26,0.0,0.0,69,0.00,,,0.00,Wunderground v.1.13,2013-07-02 04:50:00,